OneWeb SL0348

operational
NORAD ID: 49213 Int'l Des: 2021-083 Owner: ONEWEBN Country: UK Constellation: oneweb
LEOCIRCULARPOLARONEWEB_TYPE

Über OneWeb SL0348

Beschreibung wird geladen...

Live-Position

3D-Globus wird geladen...

Nächste Überflüge

Höhenverlauf

Altitude vs Time

uPlot chart will show altitude changes over time

Zweizeiliger Elementsatz

1 49213U 21083AD 25353.34326791 .00000059 00000-0 11421-3 0 9992
2 49213 87.9205 310.3074 0001537 98.7589 261.3719 13.20772123213072
Epoch: 19. Dez. 2025 • Age: 14 hours

Aktueller Status

Höhe 1197.3 km
Geschwindigkeit 7.25 km/s
Subsatellitenpunkt -39.14°S, 72.07°E
Startdatum 14. Sept. 2021
Alter 4.2 years
Typ internet

Technische Details

Klassifizierung Payload
Masse 148.00 kg
Trockenmasse 140.00 kg
Gesamtmasse 148.00 kg
Länge 1.30 m
Durchmesser 1.00 m
Spannweite 5.00 m
Form Trapezoid+2 pan
Hersteller ONEWUS
Bus-Typ ARROW
Phasenstatus In Orbit
Besitzer/Staat ONEWEBN/UK

Große Konstellationen

Loading constellations...